Flag for Netherlands Weather past 2 weeks in Hoofddorp, Netherlands

Now
55 °F

Scattered showers. Broken clouds.


Feels Like: 51 °F
Forecast: 47 / 57 °F
Wind: 20 mph from Southwest

Location: Amsterdam Schiphol Airport

Current Time: May 6, 2015 at 11:42:33 AM

Latest Report: May 6, 2015 at 10:55 AM


Visibility: N/A

Pressure: 29.74 "Hg

Humidity: 67%

Dew point: 45 °F

Location of HoofddorpLocation

Historic Weather in Hoofddorp — Graph

°F

Hoofddorp temperature yesterday

Maximum temperature yesterday: 72 °F (at 12:25 PM)
Minimum temperature yesterday: 52 °F (at 10:25 PM)
Average temperature yesterday: 60 °F

Past Weeks' High & Low Weather Summary

 TemperatureHumidityPressure
High72 °F (May 5, 12:25 PM)100% (Apr 22, 3:55 AM)30.51 "Hg (Apr 22, 3:55 AM)
Low34 °F (Apr 28, 3:25 AM)33% (May 2, 3:55 PM)29.30 "Hg (May 5, 4:25 AM)
Average51 °F74%29.87 "Hg
* Reported Apr 21 10:25 AM — May 6 10:25 AM, Hoofddorp, Weather by CustomWeather, © 2015

Note: Actual official high and low records may vary slightly from our data, if they occured in-between our weather recording intervals... More about our weather records

Advertising

Hoofddorp weather history for previous 24 hours

 ConditionsComfort  
Time TempWeatherWind HumidityBarometerVisibility
10:25 AM
Wed, May 6
54 °FBroken clouds.21 mph72%29.74 "HgN/A
9:55 AM54 °FBroken clouds.18 mph72%29.74 "HgN/A
9:25 AM54 °FPartly sunny.18 mph72%29.74 "HgN/A
8:55 AM54 °FBroken clouds.18 mph72%29.74 "HgN/A
8:25 AM52 °FPartly sunny.16 mph77%29.74 "HgN/A
7:55 AM52 °FPartly sunny.14 mph77%29.74 "HgN/A
7:25 AM50 °FScattered clouds.12 mph82%29.74 "HgN/A
6:55 AM50 °FPassing clouds.13 mph82%29.74 "HgN/A
6:25 AM50 °FPassing clouds.12 mph76%29.71 "HgN/A
5:55 AM50 °FClear.10 mph76%29.71 "Hg10 mi
4:55 AM50 °FPassing clouds.10 mph76%29.71 "HgN/A
4:25 AM50 °FPassing clouds.13 mph76%29.71 "HgN/A
3:55 AM52 °FClear.13 mph72%29.74 "Hg10 mi
3:25 AM52 °FClear.14 mph72%29.74 "Hg10 mi
2:55 AM52 °FPassing clouds.9 mph77%29.71 "HgN/A
2:25 AM54 °FClear.15 mph67%29.74 "Hg10 mi
1:55 AM55 °FClear.18 mph63%29.74 "Hg10 mi
1:25 AM55 °FClear.13 mph67%29.71 "Hg10 mi
12:55 AM55 °FClear.13 mph67%29.71 "Hg10 mi
12:25 AM54 °FClear.10 mph72%29.71 "Hg10 mi
11:55 PM
Tue, May 5
52 °FClear.9 mph77%29.71 "Hg10 mi
11:25 PM54 °FClear.12 mph72%29.71 "Hg10 mi
10:55 PM54 °FPassing clouds.8 mph67%29.71 "HgN/A
10:25 PM52 °FClear.10 mph72%29.71 "Hg10 mi
9:55 PM54 °FSunny.12 mph67%29.68 "Hg10 mi
9:25 PM55 °FPassing clouds.15 mph63%29.68 "HgN/A
8:55 PM57 °FPassing clouds.23 mph55%29.68 "HgN/A
8:25 PM57 °FSunny.26 mph55%29.68 "Hg10 mi
7:55 PM57 °FPassing clouds.30 mph55%29.65 "HgN/A
7:25 PM57 °FPassing clouds.35 mph55%29.65 "HgN/A
6:55 PM57 °FPassing clouds.38 mph55%29.65 "HgN/A
6:25 PM57 °FPassing clouds.29 mph59%29.62 "HgN/A
5:55 PM59 °FPassing clouds.32 mph59%29.62 "HgN/A
5:25 PM59 °FPassing clouds.30 mph55%29.59 "HgN/A
4:55 PM59 °FPassing clouds.36 mph55%29.56 "HgN/A
4:25 PM57 °FScattered clouds.36 mph63%29.56 "HgN/A
3:55 PM59 °FPartly sunny.36 mph63%29.53 "HgN/A
3:25 PM59 °FPassing clouds.31 mph72%29.50 "HgN/A
2:55 PM59 °FPassing clouds.31 mph77%29.47 "HgN/A
2:25 PM61 °FPassing clouds.26 mph77%29.45 "HgN/A
1:55 PM59 °FSprinkles. Passing clouds.22 mph94%29.42 "HgN/A
1:25 PM59 °FSprinkles. Passing clouds.29 mph88%29.39 "Hg4 mi
12:55 PM68 °FSprinkles. Scattered clouds.21 mph69%29.33 "HgN/A
12:25 PM72 °FPassing clouds.22 mph65%29.33 "HgN/A
11:55 AM68 °FPassing clouds.18 mph69%29.36 "HgN/A
11:25 AM68 °FPassing clouds.22 mph69%29.36 "HgN/A
Weather by CustomWeather, © 2015

See weather overviewHow to use our weather pages